User: anonymous   Login
Location: Unspecified
(0.0000°N, 0.0000°E)
Time: 05:02:41
(UTC+01:00)
Language:

Ariane H10 - Orbit

View from above orbital plane
View from above orbital plane
View from above satellite
View from above satellite

Ground track
Ground track

The orbit data is extracted from the following two-line orbital elements,

1 19622U 88098B   17328.34915999  .00001566  00000-0  49521-3 0  9995
2 19622   3.7680  36.4208 6352259 142.8386 284.9290  3.51302903309982
Epoch (UTC): 24 November 2017 08:22:47
Eccentricity: 0.6352259
inclination: 3.7680°
perigee height: 289 km
apogee height: 23511 km
right ascension of ascending node: 36.4208°
argument of perigee: 142.8386°
revolutions per day: 3.51302903
mean anomaly at epoch: 284.9290°
orbit number at epoch: 30998

The dashed part of the orbit path shows where the satellite is in the earth's shadow,  

DLR